[[{"header":{"parameterUnit":"m.s-1","parameterCategory":1,"la1":30.2991,"la2":30.254,"lo1":-89.0895,"lo2":-89.0444,"dy":0.0017,"dx":0.0017,"nx":28,"ny":28,"refTime":"2023-08-21T03:00:00:Z","depth":0,"parameterNumber":2,"parameterNumberName":"U-component_of_WINDS"},"data":[0,0,0,0,0,0,0,0,0,0,0,0,0,0,0,0,0,0,0,0,0,0,0,0,0,0,0,0,0,0,0,0,0,0,0,0,0,0,0,0,0,0,0,0,0,0,0,0,0,0,0,0,0,0,0,0,0,0,-3.3367,-3.3367,0,-3.3399,-3.34,-3.34,-3.3322,-3.3319,-3.3317,-3.3315,-3.3349,-3.3352,-3.3355,0,0,0,0,0,0,0,0,0,0,0,0,0,-3.324,-3.3243,-3.3367,-3.3367,-3.3368,-3.3399,-3.34,-3.34,-3.3322,-3.3319,-3.3316,-3.3314,-3.3348,-3.3351,-3.3355,0,0,0,0,0,0,0,0,0,0,0,0,0,-3.3286,-3.3244,-3.3367,-3.3333,-3.333,-3.3399,-3.34,-3.34,-3.3323,-3.3319,-3.3316,-3.3312,-3.3346,-3.3351,-3.3356,-3.346,0,0,-3.3371,-3.3373,0,0,0,0,0,0,0,0,-3.3284,-3.3291,-3.3337,-3.3335,-3.3332,-3.3353,-3.3367,-3.342,-3.3324,-3.3326,-3.3315,-3.331,-3.3353,-3.3357,-3.3371,-3.3461,-3.3463,-3.3371,-3.3374,-3.3376,-3.3377,0,0,0,0,0,0,0,-3.328,-3.3289,-3.338,-3.3338,-3.3335,-3.3317,-3.3319,-3.3377,-3.336,-3.3325,-3.332,-3.3324,-3.3351,-3.3367,-3.3372,-3.3463,-3.3371,-3.3375,-3.3378,-3.338,-3.3643,-3.3647,0,0,0,0,0,0,-3.3281,-3.3287,-3.3378,-3.3381,-3.3298,-3.3322,-3.3325,-3.335,-3.3359,-3.3357,-3.3328,-3.3321,-3.336,-3.3366,-3.3373,-3.3496,-3.3376,-3.338,-3.3383,-3.3639,-3.3644,-3.3648,0,0,0,0,0,0,-3.3279,-3.329,-3.3377,-3.3332,-3.3342,-3.3328,-3.3357,-3.3352,-3.3368,-3.3361,-3.3357,-3.3347,-3.3358,-3.3366,-3.3439,-3.3496,-3.3383,-3.3387,-3.3634,-3.364,-3.3646,-3.3742,0,0,0,0,0,0,-3.3276,-3.329,-3.3328,-3.3334,-3.3345,-3.3443,-3.336,-3.3356,-3.3377,-3.3368,-3.3378,-3.3376,-3.3355,-3.3432,-3.3444,-3.35,-3.3391,-3.3629,-3.3637,-3.3644,-3.3734,-3.3751,-3.3766,0,0,0,0,0,-3.3271,-3.3354,-3.3331,-3.3342,-3.3392,-3.3446,-3.3452,-3.3427,-3.3382,-3.3421,-3.3416,-3.3376,-3.3488,-3.3441,-3.3453,-3.3512,-3.3625,-3.3634,-3.3643,-3.3727,-3.3748,-3.3765,0,0,0,0,0,0,-3.3355,-3.3354,-3.3328,-3.3415,-3.3431,-3.3433,-3.3481,-3.3449,-3.3479,-3.347,-3.3437,-3.344,-3.352,-3.3523,-3.347,-3.3614,-3.3549,-3.3561,-3.3608,-3.3628,-3.3643,-3.364,-3.3395,0,0,0,0,0,-3.3384,-3.3427,-3.3424,-3.3501,-3.3511,-3.3495,-3.3517,-3.3497,-3.3512,-3.3519,-3.3519,-3.3537,-3.3576,-3.3602,-3.3638,-3.3735,-3.3737,-3.3782,-3.3798,-3.3811,-3.3821,-3.3874,-3.3894,-3.3678,-3.3678,-3.3678,0,0,-3.3443,-3.3448,-3.3477,-3.3518,-3.3528,-3.3574,-3.3501,-3.3553,-3.3587,-3.3526,-3.3596,-3.3598,-3.3615,-3.3701,-3.3739,-3.3706,-3.3881,-3.3822,-3.3833,-3.3836,-3.3885,-3.3906,-3.3924,-3.3684,-3.3683,-3.3682,0,0,-3.3575,-3.3583,-3.3648,-3.3661,-3.3677,-3.3667,-3.3683,-3.369,-3.3689,-3.3758,-3.3715,-3.3756,-3.3824,-3.3838,-3.3854,-3.3996,-3.396,-3.4008,-3.409,-3.4142,-3.4159,-3.4174,-3.4225,-3.4243,-3.4019,-3.4019,-3.402,0,-3.3647,-3.3714,-3.3686,-3.3741,-3.3761,-3.371,-3.3776,-3.379,-3.3818,-3.3833,-3.3796,-3.3882,-3.389,-3.3979,-3.4014,-3.4029,-3.4047,-3.4006,-3.4159,-3.4174,-3.4187,-3.4235,-3.4254,-3.4025,-3.4025,-3.4024,-3.4023,0,-3.3801,-3.3849,-3.39,-3.3929,-3.3954,-3.4015,-3.3998,-3.4028,-3.4006,-3.4,-3.4072,-3.4081,-3.4118,-3.4138,-3.4116,-3.4225,-3.4204,-3.4164,-3.4098,-3.4214,-3.4258,-3.4276,-3.4033,-3.4031,-3.403,-3.4028,0,0,-3.3984,-3.3998,-3.4017,-3.403,-3.4047,-3.4083,-3.4143,-3.418,-3.4206,-3.4228,-3.4278,-3.4338,-3.4302,-3.4321,-3.4301,-3.4347,-3.4459,-3.4301,-3.4301,-3.433,-3.458,-3.461,-3.4631,-3.4436,-3.444,-3.4442,-3.4579,0,-3.4114,-3.4215,-3.4193,-3.4293,-3.4338,-3.4291,-3.4344,-3.436,-3.4357,-3.4395,-3.4392,-3.4435,-3.4384,-3.4395,-3.4438,-3.4436,-3.4509,-3.4426,-3.4482,-3.4485,-3.4478,-3.4655,-3.4686,-3.4813,-3.4596,-3.4599,-3.4601,0,-3.4278,-3.4307,-3.4412,-3.4423,-3.444,-3.4487,-3.452,-3.4557,-3.4576,-3.4571,-3.4593,-3.4566,-3.4626,-3.4561,-3.4645,-3.4589,-3.4612,-3.4615,-3.4619,-3.4622,-3.4549,-3.4662,-3.4854,-3.4873,-3.4628,-3.4626,-3.4624,0,-3.4401,-3.4466,-3.4537,-3.455,-3.4565,-3.4599,-3.4607,-3.4622,-3.4646,-3.4676,-3.4691,-3.4727,-3.4747,-3.4777,-3.476,-3.4714,-3.4847,-3.478,-3.4845,-3.4846,-3.4873,-3.4872,-3.5071,-3.489,-3.4889,-3.4889,-3.4889,0,-3.4548,-3.4614,-3.4593,-3.4636,-3.471,-3.4685,-3.4759,-3.4761,-3.4776,-3.482,-3.4783,-3.4825,-3.4802,-3.4843,-3.4831,-3.4903,-3.4912,-3.491,-3.4906,-3.4913,-3.4913,-3.4926,-3.4916,-3.4894,-3.4893,-3.4892,-3.4891,0,-3.4696,-3.4685,-3.4759,-3.4768,-3.4772,-3.4826,-3.4833,-3.4875,-3.487,-3.4927,-3.4939,-3.4932,-3.4979,-3.4966,-3.5017,-3.5009,-3.51,-3.5084,-3.5093,-3.5089,-3.5154,-3.5148,-3.5368,-3.5396,-3.5197,-3.5199,-3.5201,0,-3.479,-3.484,-3.4854,-3.4881,-3.4892,-3.4936,-3.4961,-3.494,-3.4967,-3.4994,-3.5033,-3.5077,-3.511,-3.5188,-3.5188,-3.5227,-3.5212,-3.5287,-3.5218,-3.5224,-3.5214,-3.5211,-3.5216,-3.53,-3.5302,-3.5304,-3.5306,0,-3.4958,-3.4951,-3.4987,-3.5024,-3.5054,-3.5082,-3.5106,-3.513,-3.5111,-3.5145,-3.5192,-3.5219,-3.5272,-3.5316,-3.5353,-3.5362,-3.5332,-3.5328,-3.5345,-3.5352,-3.5355,-3.5354,-3.513,-3.5322,-3.5321,-3.5319,-3.5318,-3.5318,-3.5082,-3.5124,-3.5142,-3.5185,-3.5201,-3.5225,-3.5265,-3.5266,-3.5305,-3.5346,-3.5332,-3.5387,-3.5407,-3.5453,-3.5467,-3.5511,-3.5482,-3.5507,-3.5513,-3.5519,-3.5528,-3.5349,-3.5517,-3.5517,-3.5516,-3.5516,-3.5516,0,-3.5248,-3.5257,-3.5297,-3.5332,-3.5367,-3.5336,-3.5362,-3.5393,-3.5442,-3.5462,-3.5497,-3.5553,-3.5597,-3.5601,-3.5643,-3.5677,-3.5664,-3.5688,-3.5685,-3.5688,-3.555,-3.5531,-3.5698,-3.5698,-3.5698,-3.5698,-3.5698,-3.5698,-3.5338,-3.5409,-3.5404,-3.5483,-3.5492,-3.5546,-3.5564,-3.5586,-3.5603,-3.5667,-3.5703,-3.5706,-3.5721,-3.5763,-3.5803,-3.5803,-3.582,-3.585,-3.5845,-3.5716,-3.5698,-3.568,-3.5662,-3.5854,-3.5854,-3.5979,-3.598,-3.5981]},{"header":{"parameterUnit":"m.s-1","parameterCategory":1,"la1":30.2991,"la2":30.254,"lo1":-89.0895,"lo2":-89.0444,"dy":0.0017,"dx":0.0017,"nx":28,"ny":28,"refTime":"2023-08-21T03:00:00:Z","depth":0,"parameterNumber":3,"parameterNumberName":"V-component_of_WINDS"},"data":[0,0,0,0,0,0,0,0,0,0,0,0,0,0,0,0,0,0,0,0,0,0,0,0,0,0,0,0,0,0,0,0,0,0,0,0,0,0,0,0,0,0,0,0,0,0,0,0,0,0,0,0,0,0,0,0,0,0,3.6052,3.6052,0,3.6033,3.6033,3.6033,3.6046,3.6047,3.6048,3.6048,3.6022,3.6021,3.6019,0,0,0,0,0,0,0,0,0,0,0,0,0,3.6094,3.6093,3.6052,3.6052,3.6052,3.6033,3.6033,3.6033,3.6046,3.6047,3.6048,3.6048,3.6022,3.6021,3.6019,0,0,0,0,0,0,0,0,0,0,0,0,0,3.6075,3.6093,3.6052,3.6056,3.6057,3.6033,3.6033,3.6033,3.6046,3.6047,3.6048,3.6049,3.6023,3.6021,3.6019,3.5989,0,0,3.6013,3.6012,0,0,0,0,0,0,0,0,3.6076,3.6074,3.6056,3.6056,3.6056,3.6043,3.6038,3.6018,3.6046,3.605,3.6048,3.6049,3.6028,3.6025,3.602,3.5987,3.5986,3.6013,3.6012,3.6011,3.601,0,0,0,0,0,0,0,3.6078,3.6075,3.6044,3.6056,3.6056,3.6057,3.6056,3.6034,3.6034,3.605,3.6051,3.6049,3.6028,3.6022,3.6019,3.5986,3.6013,3.6011,3.601,3.6009,3.5927,3.5926,0,0,0,0,0,0,3.6079,3.6076,3.6045,3.6044,3.6069,3.6056,3.6054,3.6046,3.6034,3.6033,3.6048,3.6049,3.6024,3.6021,3.6018,3.5981,3.6011,3.6009,3.6008,3.5928,3.5927,3.5926,0,0,0,0,0,0,3.608,3.6077,3.6046,3.606,3.6056,3.6054,3.6045,3.6046,3.6039,3.6033,3.6032,3.6042,3.6025,3.6021,3.5996,3.5981,3.6008,3.6007,3.5929,3.5928,3.5926,3.5907,0,0,0,0,0,0,3.6081,3.6077,3.6067,3.606,3.6056,3.6026,3.6045,3.6044,3.6037,3.6038,3.6027,3.6026,3.6025,3.5999,3.5994,3.5978,3.6005,3.593,3.5928,3.5927,3.5909,3.5905,3.5902,0,0,0,0,0,3.6083,3.6061,3.6066,3.6062,3.6043,3.6025,3.6022,3.6025,3.6035,3.6024,3.602,3.6026,3.5984,3.5996,3.5991,3.5974,3.5931,3.5929,3.5927,3.5911,3.5906,3.5902,0,0,0,0,0,0,3.6063,3.606,3.6066,3.6041,3.6034,3.6027,3.6013,3.6019,3.6007,3.6009,3.601,3.6007,3.5981,3.5975,3.599,3.5944,3.5959,3.5955,3.5949,3.5944,3.594,3.5942,3.6004,0,0,0,0,0,3.6056,3.6044,3.6041,3.6019,3.6016,3.6015,3.6007,3.601,3.6001,3.5997,3.5991,3.5981,3.5965,3.5954,3.594,3.5909,3.5906,3.5895,3.5891,3.5889,3.5885,3.5867,3.5862,3.5918,3.5918,3.5918,0,0,3.6041,3.6038,3.6029,3.6015,3.601,3.5995,3.6012,3.5996,3.5984,3.5994,3.5971,3.5966,3.5954,3.5927,3.5914,3.5921,3.5869,3.5886,3.5883,3.5881,3.5864,3.5859,3.5854,3.5916,3.5917,3.5917,0,0,3.6006,3.6003,3.5984,3.5979,3.5972,3.5972,3.5967,3.5961,3.5959,3.5936,3.5943,3.5928,3.5902,3.5893,3.5885,3.5848,3.5852,3.5843,3.5822,3.5806,3.5801,3.5797,3.5783,3.5778,3.5839,3.5839,3.5839,0,3.5987,3.5967,3.5974,3.5957,3.595,3.5961,3.5942,3.5935,3.5922,3.5916,3.5925,3.5892,3.5885,3.5855,3.5846,3.584,3.5833,3.5843,3.5802,3.5798,3.5794,3.578,3.5775,3.5838,3.5838,3.5838,3.5838,0,3.5944,3.5931,3.5916,3.5906,3.5898,3.5879,3.5881,3.5871,3.5875,3.5874,3.585,3.5842,3.5826,3.5819,3.5821,3.5789,3.5794,3.5802,3.5817,3.5788,3.5775,3.5769,3.5836,3.5837,3.5837,3.5837,0,0,3.5894,3.5889,3.5884,3.5879,3.5872,3.586,3.5842,3.5829,3.582,3.5811,3.5795,3.5772,3.5781,3.5771,3.5773,3.5758,3.5728,3.5768,3.5768,3.576,3.5691,3.5683,3.5677,3.5732,3.5731,3.573,3.5691,0,3.5858,3.5829,3.5835,3.5805,3.5792,3.5803,3.5787,3.578,3.5778,3.5765,3.5762,3.5746,3.5759,3.5753,3.5739,3.5735,3.5714,3.5738,3.5714,3.5713,3.5716,3.567,3.5663,3.5626,3.5686,3.5685,3.5685,0,3.5812,3.5803,3.5773,3.5769,3.5763,3.5749,3.5737,3.5725,3.5717,3.5717,3.5707,3.5712,3.5692,3.5708,3.568,3.5696,3.5687,3.5683,3.5682,3.5678,3.5696,3.5664,3.5615,3.5608,3.5677,3.5677,3.5678,0,3.5777,3.5758,3.5738,3.5734,3.5728,3.5718,3.5714,3.5707,3.5699,3.5688,3.5682,3.5668,3.566,3.5648,3.5648,3.566,3.5618,3.5635,3.5615,3.5615,3.5604,3.5605,3.5551,3.5601,3.5601,3.5601,3.5601,0,3.5735,3.5716,3.5722,3.5709,3.5688,3.5694,3.5672,3.5669,3.5663,3.5649,3.5657,3.5643,3.5644,3.5629,3.5629,3.5604,3.5601,3.5598,3.5598,3.5597,3.5597,3.5589,3.5591,3.56,3.56,3.56,3.5601,0,3.5692,3.5695,3.5674,3.5671,3.567,3.5654,3.5651,3.5638,3.5638,3.5619,3.5615,3.5614,3.5597,3.5596,3.5576,3.5575,3.5545,3.5549,3.5549,3.5549,3.5529,3.553,3.5467,3.5459,3.5516,3.5515,3.5515,0,3.5664,3.565,3.5646,3.5639,3.5635,3.5622,3.5614,3.5619,3.561,3.56,3.5588,3.5573,3.556,3.5532,3.5528,3.5512,3.5514,3.5493,3.5511,3.551,3.5512,3.5512,3.551,3.5489,3.5488,3.5488,3.5487,0,3.5614,3.5617,3.5606,3.5596,3.5588,3.5579,3.5572,3.5564,3.5568,3.5558,3.5542,3.5532,3.5513,3.5496,3.5482,3.5476,3.5481,3.5482,3.5476,3.5474,3.5474,3.5472,3.5537,3.5483,3.5483,3.5484,3.5484,3.5484,3.5576,3.5564,3.556,3.5548,3.5544,3.5537,3.5525,3.5524,3.5512,3.5498,3.5501,3.5483,3.5474,3.5455,3.5448,3.5433,3.5439,3.5432,3.5429,3.5427,3.5424,3.5478,3.543,3.543,3.543,3.543,3.543,0,3.5526,3.5524,3.5513,3.5504,3.5494,3.5504,3.5496,3.5486,3.5471,3.5464,3.5452,3.5433,3.5418,3.5413,3.5397,3.5385,3.5387,3.5381,3.5381,3.5379,3.542,3.5426,3.538,3.538,3.538,3.538,3.538,3.538,3.5498,3.5478,3.5481,3.5458,3.5456,3.544,3.5435,3.5427,3.5422,3.5401,3.5389,3.5388,3.5381,3.5365,3.535,3.5349,3.5342,3.5334,3.5334,3.5371,3.5376,3.5381,3.5387,3.5333,3.5333,3.5294,3.5294,3.5294]}]]